[[{"header":{"parameterUnit":"m.s-1","parameterCategory":1,"la1":30.2991,"la2":30.254,"lo1":-89.0895,"lo2":-89.0444,"dy":0.0017,"dx":0.0017,"nx":28,"ny":28,"refTime":"2024-04-27T09:00:00:Z","depth":0,"parameterNumber":2,"parameterNumberName":"U-component_of_WINDS"},"data":[0,0,0,0,0,0,0,0,0,0,0,0,0,0,0,0,0,0,0,0,0,0,0,0,0,0,0,0,0,0,0,0,0,0,0,0,0,0,0,0,0,0,0,0,0,0,0,0,0,0,0,0,0,0,0,0,0,0,-4.0772,-4.0773,0,-4.0881,-4.0882,-4.0883,-4.0894,-4.0893,-4.0892,-4.0891,-4.1001,-4.1005,-4.1009,0,0,0,0,0,0,0,0,0,0,0,0,0,-4.0572,-4.0576,-4.0772,-4.0773,-4.0774,-4.088,-4.0882,-4.0883,-4.0894,-4.0893,-4.0892,-4.089,-4.0999,-4.1004,-4.1009,0,0,0,0,0,0,0,0,0,0,0,0,0,-4.0668,-4.0577,-4.0771,-4.0793,-4.0796,-4.088,-4.0882,-4.0884,-4.0895,-4.0893,-4.0891,-4.089,-4.0998,-4.1004,-4.101,-4.108,0,0,-4.1028,-4.103,0,0,0,0,0,0,0,0,-4.0662,-4.0675,-4.0788,-4.0791,-4.0795,-4.0872,-4.0852,-4.0949,-4.0895,-4.0857,-4.0891,-4.0889,-4.0959,-4.0968,-4.0992,-4.1085,-4.109,-4.1028,-4.1032,-4.1034,-4.1036,0,0,0,0,0,0,0,-4.0656,-4.067,-4.0815,-4.079,-4.0794,-4.0796,-4.0808,-4.087,-4.0916,-4.086,-4.0861,-4.0874,-4.0961,-4.0986,-4.0995,-4.1091,-4.1028,-4.1033,-4.1037,-4.1039,-4.1246,-4.1248,0,0,0,0,0,0,-4.0645,-4.0665,-4.0811,-4.0818,-4.0723,-4.0801,-4.0814,-4.0849,-4.0915,-4.0924,-4.0875,-4.0874,-4.0977,-4.0988,-4.0999,-4.1084,-4.1034,-4.104,-4.1043,-4.1244,-4.1246,-4.1248,0,0,0,0,0,0,-4.0641,-4.0658,-4.0807,-4.0742,-4.0761,-4.0807,-4.0845,-4.0852,-4.0878,-4.0927,-4.0935,-4.0893,-4.0976,-4.099,-4.1059,-4.1088,-4.1043,-4.1048,-4.1242,-4.1245,-4.1247,-4.1256,0,0,0,0,0,0,-4.0635,-4.0657,-4.0684,-4.0742,-4.0764,-4.0866,-4.0847,-4.0855,-4.0888,-4.0888,-4.0946,-4.0954,-4.0976,-4.105,-4.1065,-4.1095,-4.1053,-4.1239,-4.1243,-4.1246,-4.1253,-4.1259,-4.1263,0,0,0,0,0,-4.0628,-4.0682,-4.0685,-4.0703,-4.08,-4.0868,-4.088,-4.0905,-4.0891,-4.0918,-4.095,-4.0952,-4.1083,-4.1057,-4.1074,-4.1107,-4.1237,-4.1242,-4.1246,-4.1251,-4.1258,-4.1263,0,0,0,0,0,0,-4.0626,-4.069,-4.0694,-4.0769,-4.0813,-4.0869,-4.0905,-4.0911,-4.096,-4.0957,-4.0985,-4.0998,-4.1066,-4.1094,-4.1064,-4.1178,-4.1159,-4.1167,-4.1157,-4.1163,-4.1168,-4.1159,-4.1058,0,0,0,0,0,-4.0634,-4.0684,-4.0738,-4.0799,-4.082,-4.0859,-4.0889,-4.0905,-4.0951,-4.0969,-4.1006,-4.105,-4.1101,-4.1134,-4.1184,-4.1258,-4.127,-4.1289,-4.1294,-4.1298,-4.1303,-4.1343,-4.1352,-4.1262,-4.1262,-4.1262,0,0,-4.0651,-4.0693,-4.0723,-4.0799,-4.0835,-4.0885,-4.0874,-4.0929,-4.0966,-4.0978,-4.1044,-4.1073,-4.1124,-4.1196,-4.1229,-4.1221,-4.1331,-4.1303,-4.1306,-4.131,-4.1348,-4.1357,-4.1364,-4.1265,-4.1265,-4.1264,0,0,-4.0709,-4.0746,-4.08,-4.0836,-4.089,-4.0915,-4.0928,-4.0984,-4.1003,-4.1071,-4.108,-4.1126,-4.1213,-4.1249,-4.1279,-4.135,-4.1353,-4.1365,-4.1391,-4.1429,-4.1436,-4.1443,-4.1466,-4.1475,-4.1371,-4.1371,-4.1371,0,-4.0723,-4.08,-4.0826,-4.088,-4.0913,-4.0926,-4.098,-4.1014,-4.1082,-4.1104,-4.1094,-4.1204,-4.124,-4.1319,-4.1336,-4.136,-4.1375,-4.1358,-4.1433,-4.144,-4.1446,-4.1469,-4.1478,-4.1372,-4.1372,-4.1372,-4.1372,0,-4.0814,-4.0868,-4.0905,-4.0969,-4.1007,-4.1061,-4.1095,-4.1129,-4.1141,-4.1167,-4.1236,-4.1279,-4.1338,-4.1358,-4.1371,-4.1439,-4.1432,-4.1428,-4.1409,-4.1455,-4.1477,-4.1486,-4.1374,-4.1373,-4.1373,-4.1373,0,0,-4.0872,-4.0951,-4.0964,-4.0993,-4.1054,-4.1095,-4.1149,-4.1207,-4.1235,-4.1282,-4.1327,-4.1401,-4.1397,-4.1431,-4.1448,-4.1482,-4.1533,-4.1473,-4.1475,-4.1481,-4.1609,-4.161,-4.162,-4.1537,-4.1539,-4.154,-4.1604,0,-4.0935,-4.1032,-4.1057,-4.1139,-4.1188,-4.1201,-4.1248,-4.129,-4.1316,-4.1361,-4.139,-4.1441,-4.1433,-4.1454,-4.1488,-4.1519,-4.1559,-4.1515,-4.1578,-4.1579,-4.1562,-4.1632,-4.1634,-4.1692,-4.1613,-4.1615,-4.1616,0,-4.1021,-4.1068,-4.1155,-4.1209,-4.123,-4.1272,-4.1326,-4.1369,-4.1417,-4.1434,-4.1471,-4.1485,-4.1541,-4.1521,-4.1598,-4.1568,-4.1596,-4.1615,-4.1618,-4.1623,-4.1599,-4.1637,-4.1712,-4.172,-4.163,-4.1629,-4.1628,0,-4.1052,-4.1138,-4.1201,-4.1225,-4.129,-4.1319,-4.1347,-4.1393,-4.1426,-4.1473,-4.1494,-4.1548,-4.1577,-4.1617,-4.1645,-4.1628,-4.1719,-4.1702,-4.1733,-4.1733,-4.175,-4.1748,-4.1828,-4.1771,-4.1771,-4.1771,-4.1771,0,-4.1118,-4.117,-4.1215,-4.1254,-4.1312,-4.1341,-4.1398,-4.1427,-4.1468,-4.1511,-4.1527,-4.1567,-4.1602,-4.1647,-4.1669,-4.1729,-4.1742,-4.1756,-4.1761,-4.1754,-4.1752,-4.1771,-4.1767,-4.1773,-4.1773,-4.1772,-4.1772,0,-4.1162,-4.1194,-4.1263,-4.1319,-4.1334,-4.1374,-4.1422,-4.1459,-4.1486,-4.1541,-4.1556,-4.1597,-4.1651,-4.1683,-4.1752,-4.1766,-4.1832,-4.1836,-4.1815,-4.1817,-4.1846,-4.1842,-4.194,-4.1953,-4.1889,-4.1889,-4.189,0,-4.1201,-4.1241,-4.1301,-4.1331,-4.136,-4.1409,-4.1442,-4.1472,-4.1505,-4.1563,-4.1593,-4.1648,-4.1693,-4.1779,-4.1815,-4.1867,-4.1871,-4.1902,-4.1879,-4.187,-4.187,-4.1866,-4.187,-4.1905,-4.1906,-4.1906,-4.1906,0,-4.1267,-4.1281,-4.1328,-4.138,-4.1419,-4.1462,-4.1505,-4.1529,-4.1566,-4.1603,-4.1659,-4.1694,-4.1763,-4.1817,-4.1872,-4.1901,-4.191,-4.1914,-4.1923,-4.1915,-4.1901,-4.1907,-4.1824,-4.1911,-4.191,-4.191,-4.191,-4.191,-4.1308,-4.1344,-4.1391,-4.1443,-4.1478,-4.1518,-4.1555,-4.1587,-4.1633,-4.1692,-4.1707,-4.1765,-4.1811,-4.1886,-4.1916,-4.1961,-4.1956,-4.1971,-4.1974,-4.1977,-4.1976,-4.1895,-4.1972,-4.1971,-4.1971,-4.1971,-4.1971,0,-4.1373,-4.1404,-4.1452,-4.151,-4.1551,-4.1556,-4.1604,-4.1637,-4.1687,-4.173,-4.1774,-4.1837,-4.189,-4.193,-4.1984,-4.2012,-4.2017,-4.2025,-4.2022,-4.2028,-4.1979,-4.1964,-4.202,-4.202,-4.2019,-4.2019,-4.2019,-4.2019,-4.1412,-4.1472,-4.1491,-4.1569,-4.16,-4.1656,-4.1683,-4.1719,-4.1753,-4.1822,-4.1866,-4.1892,-4.1934,-4.199,-4.2038,-4.2049,-4.2067,-4.2074,-4.2084,-4.2037,-4.2032,-4.2027,-4.2013,-4.2078,-4.2078,-4.213,-4.213,-4.2131]},{"header":{"parameterUnit":"m.s-1","parameterCategory":1,"la1":30.2991,"la2":30.254,"lo1":-89.0895,"lo2":-89.0444,"dy":0.0017,"dx":0.0017,"nx":28,"ny":28,"refTime":"2024-04-27T09:00:00:Z","depth":0,"parameterNumber":3,"parameterNumberName":"V-component_of_WINDS"},"data":[0,0,0,0,0,0,0,0,0,0,0,0,0,0,0,0,0,0,0,0,0,0,0,0,0,0,0,0,0,0,0,0,0,0,0,0,0,0,0,0,0,0,0,0,0,0,0,0,0,0,0,0,0,0,0,0,0,0,5.2649,5.265,0,5.2764,5.2765,5.2766,5.2726,5.2724,5.2721,5.2719,5.2832,5.2837,5.2842,0,0,0,0,0,0,0,0,0,0,0,0,0,5.2391,5.2396,5.2648,5.265,5.2651,5.2763,5.2765,5.2766,5.2727,5.2724,5.272,5.2718,5.283,5.2836,5.2843,0,0,0,0,0,0,0,0,0,0,0,0,0,5.2504,5.2397,5.2648,5.2645,5.2646,5.2763,5.2765,5.2767,5.2727,5.2723,5.272,5.2716,5.2828,5.2836,5.2843,5.2969,0,0,5.2868,5.2872,0,0,0,0,0,0,0,0,5.2497,5.2513,5.2644,5.2646,5.2647,5.2727,5.2715,5.2834,5.2728,5.2696,5.2719,5.2714,5.2799,5.281,5.2839,5.2974,5.2979,5.2869,5.2874,5.2877,5.2879,0,0,0,0,0,0,0,5.249,5.2508,5.2694,5.2646,5.2648,5.2637,5.2649,5.2738,5.2767,5.2699,5.2696,5.2711,5.2799,5.2832,5.2842,5.2981,5.2869,5.2876,5.2881,5.2884,5.3225,5.3229,0,0,0,0,0,0,5.2482,5.2502,5.269,5.2697,5.2561,5.2644,5.2658,5.2705,5.2767,5.2772,5.2714,5.2708,5.282,5.2832,5.2845,5.2997,5.2877,5.2885,5.2889,5.3221,5.3226,5.323,0,0,0,0,0,0,5.2476,5.2499,5.2685,5.2599,5.2622,5.2653,5.2706,5.2709,5.2741,5.2778,5.2782,5.2741,5.2817,5.2834,5.2939,5.3,5.2888,5.2895,5.3216,5.3222,5.3228,5.33,0,0,0,0,0,0,5.2469,5.2497,5.2546,5.26,5.2627,5.2779,5.271,5.2714,5.2756,5.275,5.2805,5.2811,5.2816,5.2927,5.2947,5.3009,5.2902,5.321,5.3219,5.3226,5.3292,5.3308,5.3321,0,0,0,0,0,5.246,5.256,5.2549,5.2571,5.2689,5.2782,5.2797,5.2802,5.2761,5.281,5.2833,5.2809,5.2991,5.2938,5.296,5.3026,5.3206,5.3216,5.3226,5.3286,5.3305,5.3321,0,0,0,0,0,0,5.251,5.2567,5.2555,5.2676,5.2725,5.2775,5.2837,5.2822,5.2882,5.2874,5.2876,5.2889,5.2997,5.3022,5.2963,5.3151,5.3092,5.3107,5.313,5.3149,5.3163,5.3154,5.2908,0,0,0,0,0,5.2536,5.2608,5.2654,5.2756,5.2781,5.2805,5.2846,5.2846,5.2896,5.2916,5.2947,5.2995,5.3063,5.3107,5.3172,5.3296,5.3307,5.3352,5.3366,5.3378,5.339,5.3458,5.3478,5.3262,5.3262,5.3262,0,0,5.2588,5.2628,5.2674,5.2767,5.2805,5.2879,5.2823,5.2903,5.2958,5.2927,5.3029,5.3054,5.3107,5.3223,5.3275,5.3247,5.3453,5.339,5.34,5.3405,5.347,5.349,5.3509,5.3268,5.3267,5.3266,0,0,5.2722,5.276,5.285,5.289,5.2948,5.2964,5.2985,5.3039,5.3055,5.3157,5.3136,5.3201,5.3317,5.3357,5.3392,5.3543,5.3523,5.3564,5.364,5.3706,5.3723,5.3738,5.3791,5.381,5.3576,5.3576,5.3576,0,5.2779,5.2891,5.2897,5.2981,5.3022,5.3001,5.3091,5.3129,5.3205,5.3233,5.3201,5.3349,5.3383,5.3507,5.3545,5.3574,5.3598,5.3557,5.372,5.3735,5.3749,5.38,5.3821,5.3581,5.358,5.358,5.3579,0,5.2959,5.3037,5.3102,5.3179,5.3228,5.3314,5.3332,5.3381,5.3378,5.3396,5.3501,5.3542,5.3615,5.3644,5.3641,5.3769,5.3749,5.3719,5.366,5.3775,5.3823,5.3842,5.3587,5.3586,5.3584,5.3583,0,0,5.3125,5.3206,5.323,5.3264,5.3328,5.3388,5.3474,5.3547,5.3588,5.3642,5.3713,5.3814,5.3786,5.3826,5.3827,5.3885,5.4002,5.3848,5.3849,5.3874,5.4146,5.4168,5.419,5.399,5.3993,5.3996,5.4141,0,5.3264,5.3416,5.3424,5.3561,5.3633,5.3615,5.3689,5.3736,5.3756,5.3819,5.3841,5.3912,5.3871,5.3895,5.3952,5.3976,5.4056,5.3966,5.4054,5.4058,5.4041,5.4215,5.4239,5.4373,5.416,5.4163,5.4165,0,5.3446,5.3507,5.3652,5.3707,5.3737,5.3804,5.3872,5.3933,5.3986,5.3996,5.4043,5.4036,5.4122,5.4062,5.418,5.4119,5.4156,5.4173,5.4179,5.4186,5.4118,5.4227,5.4416,5.4436,5.4195,5.4192,5.419,0,5.3552,5.3671,5.3773,5.3804,5.387,5.3918,5.3947,5.3997,5.404,5.41,5.4128,5.4196,5.4233,5.4285,5.4296,5.4251,5.4416,5.4356,5.4426,5.4426,5.446,5.4457,5.4657,5.4485,5.4485,5.4485,5.4484,0,5.3706,5.3795,5.3822,5.3885,5.3984,5.3993,5.4091,5.4117,5.4162,5.4228,5.4216,5.4279,5.429,5.4355,5.4364,5.4461,5.4478,5.4488,5.4489,5.4489,5.4488,5.4512,5.4503,5.449,5.4489,5.4488,5.4487,0,5.3841,5.3863,5.3973,5.4028,5.4044,5.4115,5.4161,5.4221,5.4241,5.4325,5.4345,5.4375,5.4451,5.4469,5.4558,5.4564,5.4679,5.4672,5.4662,5.4661,5.473,5.4723,5.4952,5.4982,5.4791,5.4793,5.4794,0,5.3937,5.4006,5.4069,5.4114,5.4146,5.4218,5.4263,5.4275,5.4322,5.4389,5.444,5.4515,5.4576,5.4698,5.4727,5.4795,5.4789,5.4864,5.4799,5.4797,5.479,5.4785,5.4792,5.4876,5.4878,5.488,5.4881,0,5.4105,5.4113,5.418,5.4251,5.4306,5.4362,5.4415,5.4452,5.4471,5.4525,5.4604,5.4651,5.4744,5.4818,5.4887,5.4916,5.4902,5.4902,5.4922,5.4922,5.4913,5.4919,5.4695,5.4897,5.4895,5.4894,5.4893,5.4893,5.4224,5.4284,5.4338,5.4413,5.4455,5.4505,5.4565,5.4593,5.4659,5.4736,5.4739,5.4825,5.4876,5.4968,5.5002,5.5068,5.5044,5.5073,5.508,5.5087,5.5093,5.4904,5.508,5.508,5.508,5.5079,5.5079,0,5.4391,5.4425,5.4494,5.457,5.4629,5.4613,5.4672,5.4721,5.4798,5.4848,5.4908,5.4999,5.5071,5.5107,5.5178,5.5225,5.522,5.5243,5.5239,5.5246,5.511,5.5086,5.5246,5.5246,5.5246,5.5246,5.5246,5.5246,5.4485,5.4586,5.4601,5.4723,5.4756,5.4842,5.4876,5.4923,5.4963,5.5065,5.5126,5.515,5.5194,5.5269,5.5334,5.5343,5.5369,5.5396,5.5401,5.5273,5.5256,5.524,5.5217,5.5402,5.5402,5.5532,5.5533,5.5534]}]]